Location: O'Brien
(30.0517°N, 82.9900°W)
Time: 10:59:31
(UTC-05:00)

Hubble Space Telescope - Pass Details

Date: 30 October 2019
Orbit: 536 x 540 km, 28.5° (Epoch: 13 November)

Event Time Altitude Azimuth Distance (km) Brightness Sun altitude
Exits shadow 05:18:25 18° 117° (ESE) 1,345 3.3 -32.0°
Drops below altitude 10° 05:19:53 10° 102° (ESE) 1,779 4.2 -31.7°
Sets 05:22:23 0° 90° (E) 2,670 5.5 -31.2°
